Location: Kruen
(47.5000°N, 11.5000°E)
Time: 06:47:42
(UTC+02:00)

CUBESAT XI-V - Visible Passes

Search period start: 19 April 2026 00:00
Search period end: 29 April 2026 00:00
Orbit: 643 x 664 km, 98.3° (Epoch: 18 April)

Date Brightness Start Highest point End Pass type
(mag) Time Alt. Az. Time Alt. Az. Time Alt. Az.
19 Apr ? 02:35:26 10° ENE 02:35:38 10° NE 02:35:50 10° NE visible
19 Apr ? 04:07:12 10° SSE 04:11:32 71° ENE 04:15:59 10° N visible
19 Apr ? 05:46:31 10° WSW 05:48:46 14° W 05:51:02 10° WNW visible
20 Apr ? 02:59:52 10° E 03:02:44 17° ENE 03:05:38 10° NNE visible
20 Apr ? 04:34:47 11° S 04:39:01 63° WSW 04:43:27 10° NNW visible
21 Apr ? 03:26:09 10° SE 03:29:57 29° ENE 03:33:47 10° N visible
21 Apr ? 05:02:34 10° SSW 05:06:36 34° W 05:10:41 10° NNW visible
22 Apr ? 03:52:59 10° SE 03:57:16 50° ENE 04:01:36 10° N visible
22 Apr ? 05:31:09 10° SW 05:34:18 19° W 05:37:29 10° NW visible
23 Apr ? 02:46:36 10° E 02:48:37 13° ENE 02:50:39 10° NNE visible
23 Apr ? 04:20:15 10° SSE 04:24:42 88° WSW 04:29:11 10° NNW visible
24 Apr ? 03:12:23 10° ESE 03:15:47 22° ENE 03:19:11 10° NNE visible
24 Apr ? 04:47:56 10° S 04:52:13 47° W 04:56:33 10° NNW visible
25 Apr ? 03:38:57 10° SE 03:43:01 37° ENE 03:47:08 10° N visible
25 Apr ? 05:16:09 10° SSW 05:19:51 26° W 05:23:36 10° NW visible
26 Apr ? 04:05:58 10° SSE 04:10:23 67° ENE 04:14:50 10° N visible
27 Apr ? 02:58:49 10° E 03:01:37 17° ENE 03:04:24 10° NNE visible
27 Apr ? 04:33:26 10° S 04:37:51 66° WSW 04:42:19 10° NNW visible
28 Apr ? 03:25:02 10° ESE 03:28:48 28° ENE 03:32:35 10° N visible
28 Apr ? 05:01:20 10° SSW 05:05:25 35° W 05:09:33 10° NNW visible
